Regional Weather Roundup
Issued by NWS Midland/Odessa, TX

Skip options and go directly to product.
Home | Oldest Version | Previous Version | Current Version | All | Text Only | Save Text | Print | Product List | Glossary On

Skip product version selection by date and time.   
204
ASUS44 KMAF 271010
RWRMAF
MIDLAND AREA WEATHER ROUNDUP
NATIONAL WEATHER SERVICE MIDLAND TX
400 AM CST TUE JAN 27 2015

...IN SOUTHWEST TEXAS AND SOUTHEAST NEW MEXICO...

CITY           SKY/WX    TMP DP  RH WIND       PRES   REMARKS
ALPINE         CLOUDY    48  30  49 SW8       30.34F
ANDREWS        FAIR      40  32  70 NW8       30.23S WCI  35
ARTESIA        PTCLDY    34  34 100 N10       30.28S WCI  26
BIG SPRING     CLEAR     38  33  81 S7        30.23F WCI  33
CARLSBAD       CLEAR     36  31  82 W3        30.25S
DRYDEN           N/A     48  36  63 W9        30.20F
FORT STOCKTON  CLEAR     45  36  70 SW10      30.24S WCI  40
GUAD PASS      NOT AVBL
HOBBS          PTCLDY    39  30  70 NW9       30.26S WCI  33
MARFA          CLOUDY    41  34  75 N5        30.32S WCI  38
MIDLAND AIRPK  CLEAR     42  33  71 W6        30.22F WCI  38
MIDLAND INTL   CLEAR     41  33  73 W9        30.22S WCI  35
ODESSA         CLEAR     40  32  73 NW6       30.23S WCI  36
PECOS          CLEAR     39  35  84 NW5       30.26R WCI  36
PRESIDIO       FAIR      46  39  78 N6        30.28S
SEMINOLE       CLEAR     39  32  75 NW12      30.24F WCI  32
SNYDER         PTCLDY   N/A N/A N/A SW6       30.20S
WINK           CLEAR     36  29  75 N5        30.24R WCI  32
$$
...OTHER STATIONS IN TEXAS...

CITY           SKY/WX    TMP DP  RH WIND       PRES   REMARKS
ABILENE        PTCLDY    45  34  65 S6        30.17S
AMARILLO       PTCLDY    44  34  67 NW7       30.22F
AUSTIN         PTCLDY    41  35  79 SW3       30.13F
BROWNSVILLE    PTCLDY    54  50  86 SW5       30.20S
CORPUS CHRISTI PTCLDY    47  42  83 W6        30.18F
DALLAS FTW     PTCLDY    45  35  68 SW3       30.07F
DEL RIO        CLEAR     45  41  86 NW5       30.20S
EL PASO        CLOUDY    48  36  63 E3        30.28S
HOUSTON INT    PTCLDY    52  41  66 W6        30.11F
LUBBOCK        PTCLDY    36  32  85 NW8       30.21S WCI  30
SAN ANGELO     CLEAR     39  33  79 W5        30.20S WCI  36
SAN ANTONIO    MOCLDY    46  37  71 W7        30.17F
WACO           PTCLDY    42  37  82 SW5       30.10S WCI  39
WICHITA FALLS  NOT AVBL
$$
...OTHER LOCATIONS IN NEW MEXICO...

CITY           SKY/WX    TMP DP  RH WIND       PRES   REMARKS
ALAMAGORDO     PTCLDY    36  28  75 E6        30.30S WCI  31
ALBUQUERQUE    PTCLDY    39  27  62 N3        30.34S
CANNON AFB     PTCLDY    39  29  67 N9        30.25F WCI  33
CLOVIS         PTCLDY    37  28  70 NW7       30.25F WCI  32
HOLLOMAN AFB   MOCLDY    33  29  86 N6        30.28F WCI  28
ROSWELL        PTCLDY    39  32  76 N6        30.27S WCI  35
RUIDOSO        PTCLDY    39  16  38 W5        30.37F WCI  36
SANTA FE       PTCLDY    35  26  69 N14       30.36S WCI  26
TRUTH OR CONSE MOCLDY    42  28  57 N5        30.30S WCI  39
TUCUMCARI      LGT RAIN  36  30  79 W6        30.25F WCI  31
$$

USA.gov is the U.S. government's official web portal to all federal, state and local government web resources and services.